Regional Weather Roundup
Issued by NWS

Home | Current Version | Previous Version | Text Only | Print | Product List | Glossary On
Versions: 1 2 3 4 5 6 7 8 9 10 11 12 13 14 15 16 17 18 19 20 21 22 23 24 25 26 27 28 29 30 31 32 33 34 35 36 37 38 39 40 41 42 43 44 45 46 47 48 49 50
000
ASUS46 KSEW 180710
RWRWA

WASHINGTON REGIONAL WEATHER ROUNDUP
NATIONAL WEATHER SERVICE SEATTLE WA
1200 AM PDT THU SEP 18 2014

NOTE:"FAIR" INDICATES FEW OR NO CLOUDS BELOW 12,000 FEET WITH NO
SIGNIFICANT WEATHER AND/OR OBSTRUCTIONS TO VISIBILITY.

WAZ505-507>509-180800-
SEATTLE, TACOMA, EVERETT, AND VICINITY

CITY           SKY/WX    TMP DP  RH WIND       PRES   REMARKS
EVERETT        LGT RAIN  59  57  93 NE7       29.75F
BOEING FIELD   LGT RAIN  65  57  75 W5        29.75S
RENTON         LGT RAIN  64  61  90 W3        29.75S
SEATAC AIRPORT LGT RAIN  60  56  86 SW6       29.77R
JBLM-MCCHORD   CLOUDY    63  61  94 W5        29.77R
PUYALLUP       NOT AVBL
JBLM-FT LEWIS  CLOUDY    62  61  96 CALM      29.77R
TACOMA NARROWS LGT RAIN  61  58  90 S3        29.78R
$$

WAZ001-503-506-510-514-515-180800-
NORTH INTERIOR

CITY           SKY/WX    TMP DP  RH WIND       PRES   REMARKS
BELLINGHAM     LGT RAIN  60  57  89 S6        29.75S
FRIDAY HARBOR  CLOUDY    55  54  96 CALM      29.76S FOG
EASTSOUND      LGT RAIN  59  57  94 S6        29.73S
PORT ANGELES     N/A     58  56  93 CALM      29.75S
NAS WHIDBEY    LGT RAIN  60  57  89 SE3       29.76F
BURLINGTON     CLOUDY    59  59 100 CALM      29.77S
$$

WAZ020-022-039-040-504-511-512-180800-
SOUTHWEST INTERIOR

CITY           SKY/WX    TMP DP  RH WIND       PRES   REMARKS
SHELTON        LGT RAIN  60  58  92 CALM      29.75R
OLYMPIA        LGT RAIN  61  59  93 W3        29.77S
CHEHALIS       DRIZZLE   63  63 100 CALM      29.77S
KELSO          CLOUDY    63  55  77 CALM      29.79F
VANCOUVER      CLOUDY    66  56  70 E5        29.74R
SCAPPOOSE, OR  CLOUDY    64  56  75 CALM      29.73F
PORTLAND, OR   CLOUDY    69  58  67 NE7       29.74S
$$

WAZ021-516-517-180800-
WASHINGTON COAST

CITY           SKY/WX    TMP DP  RH WIND       PRES   REMARKS
FORKS          LGT RAIN  58  57  97 W3        29.74S FOG
HOQUIAM        LGT RAIN  60  59  96 CALM      29.75S FOG
ASTORIA, OR    CLOUDY    59  57  93 CALM      29.75F
$$

WAZ019-023-024-040-518-519-180800-
CASCADE MOUNTAINS AND COLUMBIA GORGE

CITY           SKY/WX    TMP DP  RH WIND       PRES   REMARKS
STAMPEDE PASS  NOT AVBL
TROUTDALE, OR  CLOUDY    66  57  72 CALM      29.72F
THE DALLES, OR CLOUDY    73  50  44 W20       29.67R
$$

WAZ026-027-041>044-520-521-180800-
EAST SLOPES

CITY           SKY/WX    TMP DP  RH WIND       PRES   REMARKS
OMAK           CLOUDY    71  43  36 NW10      29.61F
WENATCHEE      CLOUDY    76  46  34 NW14      29.63R
ELLENSBURG     CLOUDY    67  52  58 NW14      29.68R
YAKIMA         MOCLDY    65  49  56 CALM      29.64F
$$

WAZ028-034-035-180800-
COLUMBIA BASIN

CITY           SKY/WX    TMP DP  RH WIND       PRES   REMARKS
EPHRATA        CLOUDY    64  47  53 SW8       29.62R
MOSES LAKE     CLOUDY    66  49  54 S7        29.63R
PASCO          MOCLDY    60  57  89 N6        29.59F
HERMISTON, OR  PTCLDY    65  46  50 S7        29.61F
$$

WAZ036>038-180800-
NORTHEAST WASHINGTON

CITY           SKY/WX    TMP DP  RH WIND       PRES   REMARKS
SPOKANE GEIGER CLOUDY    68  36  30 S8        29.67S
SPOKANE FELTS  PTCLDY    64  45  49 CALM      29.66S
FAIRCHILD AFB  CLOUDY    65  39  39 SW3       29.68S
COEURDALENE,ID MOCLDY    61  50  67 SE3       29.68S
DEER PARK      PTCLDY    56  44  64 CALM      29.67S
$$

WAZ029>033-180800-
SOUTHEAST WASHINGTON

CITY           SKY/WX    TMP DP  RH WIND       PRES   REMARKS
PULLMAN        PTCLDY    58  37  45 CALM      29.70F
LEWISTON, ID   CLOUDY    69  40  34 S3        29.62F
WALLA WALLA    CLOUDY    68  39  34 VRB3      29.63R
PENDLETON, OR  PTCLDY    66  40  38 W13       29.65R
$$



USA.gov is the U.S. government's official web portal to all federal, state and local government web resources and services.